When you browse on this site, cookies collect data to enhance your experience and personalize the content and advertising you see.
Visit our Privacy Policy to learn more. By continuing to use the site, you agree to this use of cookies and data.
  • In Hungary
  • List of Countries
  • For 7 days
  • Water Temperature
  • Weather Map
  • News
  • Weather Widgets
  • user-avatar
    Login

    Hourly Weather Sondrio

    Today, 19 November, Tuesday

    Time Temperature Precipitation Wind Pressure Humidity
    00:00 +6°C° 1.1 mm 2 mps 731 mmHg 96%
    01:00 +6°C° 0 mm 2 mps 731 mmHg 96%
    02:00 +6°C° 1.4 mm 2 mps 731 mmHg 96%
    03:00 +7°C° 1.4 mm 2 mps 731 mmHg 96%
    04:00 +7°C° 1.4 mm 2 mps 731 mmHg 96%
    05:00 +7°C° 0.6 mm 2 mps 731 mmHg 96%
    06:00 +7°C° 0.6 mm 2 mps 731 mmHg 96%
    07:00 +7°C° 0.6 mm 2 mps 731 mmHg 95%
    08:00 +8°C° 1.3 mm 2 mps 731 mmHg 96%
    09:00 +8°C° 1.3 mm 2 mps 731 mmHg 97%
    10:00 +8°C° 1.3 mm 2 mps 731 mmHg 98%
    11:00 +9°C° 2.6 mm 2 mps 730 mmHg 98%
    12:00 +10°C° 2.6 mm 1 mps 730 mmHg 98%
    13:00 +10°C° 2.6 mm 1 mps 730 mmHg 98%
    14:00 +10°C° 2.8 mm 1 mps 730 mmHg 98%
    15:00 +10°C° 2.8 mm 1 mps 730 mmHg 98%
    16:00 +10°C° 2.8 mm 1 mps 730 mmHg 98%
    17:00 +10°C° 1.1 mm 1 mps 730 mmHg 98%
    18:00 +10°C° 1.1 mm 1 mps 730 mmHg 98%
    19:00 +10°C° 1.1 mm 1 mps 731 mmHg 98%
    20:00 +10°C° 0.3 mm 1 mps 731 mmHg 98%
    21:00 +10°C° 0.3 mm 1 mps 731 mmHg 98%
    22:00 +10°C° 0.3 mm 1 mps 731 mmHg 98%
    23:00 +10°C° 0.2 mm 1 mps 731 mmHg 98%

    Tomorrow, 20 November, Wednesday

    Time Temperature Precipitation Wind Pressure Humidity
    00:00 +10°C° 0.2 mm 1 mps 731 mmHg 98%
    01:00 +10°C° 0.2 mm 1 mps 731 mmHg 98%
    02:00 +10°C° 0.1 mm 1 mps 730 mmHg 98%
    03:00 +10°C° 0.1 mm 1 mps 730 mmHg 98%
    04:00 +10°C° 0.1 mm 1 mps 730 mmHg 98%
    05:00 +10°C° 0 mm 1 mps 730 mmHg 98%
    06:00 +10°C° 0 mm 1 mps 730 mmHg 98%
    07:00 +9°C° 0 mm 0 mps 730 mmHg 98%
    08:00 +9°C° 0 mm 0 mps 729 mmHg 97%
    09:00 +9°C° 0 mm 0 mps 729 mmHg 97%
    10:00 +11°C° 0 mm 1 mps 729 mmHg 97%
    11:00 +10°C° 0 mm 0 mps 729 mmHg 97%
    12:00 +10°C° 0 mm 0 mps 729 mmHg 97%
    13:00 +10°C° 0 mm 0 mps 729 mmHg 97%
    14:00 +10°C° 0 mm 0 mps 728 mmHg 97%
    15:00 +10°C° 0 mm 1 mps 728 mmHg 97%
    16:00 +10°C° 0 mm 1 mps 728 mmHg 97%
    17:00 +9°C° 0 mm 1 mps 728 mmHg 95%
    18:00 +8°C° 0 mm 1 mps 728 mmHg 92%
    19:00 +7°C° 0 mm 1 mps 729 mmHg 90%
    20:00 +7°C° 0 mm 1 mps 729 mmHg 89%
    21:00 +7°C° 0 mm 1 mps 729 mmHg 89%
    22:00 +6°C° 0 mm 1 mps 729 mmHg 88%
    23:00 +6°C° 0 mm 1 mps 729 mmHg 89%

    Day after tomorrow, 21 November, Thursday

    Time Temperature Precipitation Wind Pressure Humidity
    00:00 +6°C° 0 mm 1 mps 729 mmHg 89%
    01:00 +6°C° 0 mm 1 mps 729 mmHg 89%
    02:00 +6°C° 0 mm 1 mps 729 mmHg 88%
    03:00 +6°C° 0 mm 1 mps 728 mmHg 88%
    04:00 +6°C° 0 mm 1 mps 728 mmHg 87%
    05:00 +6°C° 0 mm 1 mps 728 mmHg 88%
    06:00 +6°C° 0 mm 1 mps 728 mmHg 88%
    07:00 +6°C° 0 mm 1 mps 728 mmHg 89%
    08:00 +7°C° 0 mm 1 mps 729 mmHg 91%
    09:00 +8°C° 0 mm 1 mps 729 mmHg 92%
    10:00 +9°C° 0 mm 1 mps 729 mmHg 94%
    11:00 +10°C° 0 mm 1 mps 728 mmHg 94%
    12:00 +10°C° 0 mm 1 mps 728 mmHg 95%
    13:00 +10°C° 0 mm 1 mps 728 mmHg 96%
    14:00 +10°C° 0.1 mm 1 mps 728 mmHg 96%
    15:00 +10°C° 0.1 mm 1 mps 728 mmHg 97%
    16:00 +9°C° 0.1 mm 1 mps 728 mmHg 98%
    17:00 +9°C° 0 mm 1 mps 728 mmHg 98%
    18:00 +9°C° 0 mm 1 mps 729 mmHg 98%
    19:00 +8°C° 0 mm 1 mps 729 mmHg 97%
    20:00 +8°C° 0 mm 1 mps 729 mmHg 97%
    21:00 +8°C° 0 mm 1 mps 730 mmHg 97%
    22:00 +8°C° 0 mm 1 mps 730 mmHg 96%
    23:00 +7°C° 0 mm 1 mps 730 mmHg 96%

    22 November, Friday

    Time Temperature Precipitation Wind Pressure Humidity
    00:00 +7°C° 0 mm 1 mps 730 mmHg 96%
    01:00 +7°C° 0 mm 1 mps 730 mmHg 96%
    02:00 +7°C° 0 mm 1 mps 730 mmHg 96%
    03:00 +6°C° 0 mm 1 mps 730 mmHg 95%
    04:00 +6°C° 0 mm 1 mps 730 mmHg 95%
    05:00 +5°C° 0 mm 1 mps 730 mmHg 94%
    06:00 +5°C° 0 mm 1 mps 730 mmHg 94%
    07:00 +5°C° 0 mm 1 mps 730 mmHg 93%
    08:00 +6°C° 0 mm 1 mps 730 mmHg 92%
    09:00 +7°C° 0 mm 1 mps 730 mmHg 91%
    10:00 +8°C° 0 mm 1 mps 730 mmHg 90%
    11:00 +9°C° 0 mm 1 mps 730 mmHg 91%
    12:00 +9°C° 0 mm 1 mps 729 mmHg 92%
    13:00 +10°C° 0 mm 1 mps 729 mmHg 92%
    14:00 +9°C° 0 mm 1 mps 729 mmHg 93%
    15:00 +9°C° 0 mm 1 mps 728 mmHg 94%
    16:00 +8°C° 0 mm 1 mps 728 mmHg 95%
    17:00 +8°C° 0.1 mm 1 mps 728 mmHg 95%
    18:00 +7°C° 0.1 mm 1 mps 728 mmHg 96%
    19:00 +7°C° 0.1 mm 1 mps 728 mmHg 96%
    20:00 +7°C° 0.3 mm 1 mps 728 mmHg 96%
    21:00 +7°C° 0.3 mm 1 mps 728 mmHg 97%
    22:00 +7°C° 0.3 mm 1 mps 728 mmHg 97%
    23:00 +7°C° 0.6 mm 1 mps 728 mmHg 97%

    23 November, Saturday

    Time Temperature Precipitation Wind Pressure Humidity
    00:00 +7°C° 0.6 mm 1 mps 728 mmHg 97%
    01:00 +8°C° 0.6 mm 1 mps 728 mmHg 97%
    02:00 +8°C° 0.3 mm 1 mps 727 mmHg 97%
    03:00 +8°C° 0.3 mm 1 mps 727 mmHg 97%
    04:00 +8°C° 0.3 mm 1 mps 727 mmHg 98%
    05:00 +8°C° 0.1 mm 1 mps 727 mmHg 97%
    06:00 +9°C° 0.1 mm 1 mps 726 mmHg 97%
    07:00 +9°C° 0.1 mm 1 mps 726 mmHg 97%
    08:00 +9°C° 0.1 mm 1 mps 726 mmHg 97%
    09:00 +9°C° 0.1 mm 1 mps 726 mmHg 97%
    10:00 +9°C° 0.1 mm 2 mps 726 mmHg 97%
    11:00 +9°C° 0.4 mm 2 mps 725 mmHg 97%
    12:00 +9°C° 0.4 mm 2 mps 725 mmHg 97%
    13:00 +9°C° 0.4 mm 2 mps 725 mmHg 97%
    14:00 +9°C° 0.5 mm 2 mps 725 mmHg 97%
    15:00 +9°C° 0.5 mm 2 mps 725 mmHg 98%
    16:00 +9°C° 0.5 mm 2 mps 725 mmHg 98%
    17:00 +9°C° 0.4 mm 2 mps 725 mmHg 98%
    18:00 +9°C° 0.4 mm 2 mps 725 mmHg 97%
    19:00 +9°C° 0.4 mm 2 mps 726 mmHg 97%
    20:00 +9°C° 0.1 mm 2 mps 726 mmHg 97%
    21:00 +9°C° 0.1 mm 2 mps 726 mmHg 96%
    22:00 +9°C° 0.1 mm 2 mps 727 mmHg 96%
    23:00 +10°C° 0.1 mm 1 mps 727 mmHg 95%

    24 November, Sunday

    Time Temperature Precipitation Wind Pressure Humidity
    00:00 +10°C° 0.1 mm 1 mps 727 mmHg 94%
    01:00 +9°C° 0.1 mm 1 mps 728 mmHg 94%
    02:00 +9°C° 0 mm 1 mps 728 mmHg 93%
    03:00 +9°C° 0 mm 1 mps 728 mmHg 93%
    04:00 +9°C° 0 mm 1 mps 728 mmHg 92%
    05:00 +9°C° 0 mm 1 mps 729 mmHg 92%
    06:00 +9°C° 0 mm 1 mps 729 mmHg 92%
    07:00 +9°C° 0 mm 1 mps 729 mmHg 92%
    08:00 +10°C° 0 mm 1 mps 730 mmHg 93%
    09:00 +10°C° 0 mm 1 mps 730 mmHg 94%
    10:00 +11°C° 0 mm 1 mps 731 mmHg 95%
    11:00 +12°C° 0 mm 1 mps 731 mmHg 95%
    12:00 +12°C° 0 mm 1 mps 731 mmHg 96%
    13:00 +11°C° 0 mm 0 mps 731 mmHg 96%
    14:00 +12°C° 0 mm 1 mps 731 mmHg 95%
    15:00 +11°C° 0 mm 1 mps 731 mmHg 95%
    16:00 +10°C° 0 mm 1 mps 731 mmHg 94%
    17:00 +10°C° 0 mm 1 mps 731 mmHg 91%
    18:00 +9°C° 0 mm 1 mps 732 mmHg 88%
    19:00 +9°C° 0 mm 1 mps 732 mmHg 84%
    20:00 +8°C° 0 mm 1 mps 732 mmHg 83%
    21:00 +8°C° 0 mm 1 mps 732 mmHg 81%
    22:00 +8°C° 0 mm 1 mps 732 mmHg 80%
    23:00 +8°C° 0 mm 1 mps 732 mmHg 80%
    Show more